�������l�o���
Date,Time,MP-1(��Sv/h),MP-2(��Sv/h),MP-3(��Sv/h),MP-4(��Sv/h),MP-5(��Sv/h),MP-6(��Sv/h),MP-7(��Sv/h),MP-8(��Sv/h),����,����(m/s),���J
2023/06/22,00:00,0.541,0.819,0.493,0.984,0.711,0.325,0.570,0.538,��,6.9,��
2023/06/22,00:10,0.541,0.819,0.494,0.982,0.709,0.324,0.571,0.538,��,6.6,��
2023/06/22,00:20,0.541,0.818,0.494,0.982,0.710,0.325,0.571,0.536,��,7.5,��
2023/06/22,00:30,0.542,0.818,0.494,0.982,0.710,0.326,0.570,0.536,��,6.4,��
2023/06/22,00:40,0.541,0.819,0.494,0.984,0.709,0.324,0.571,0.537,��,5.4,��
2023/06/22,00:50,0.540,0.818,0.493,0.983,0.710,0.326,0.571,0.538,��,5.6,��
2023/06/22,01:00,0.541,0.819,0.492,0.985,0.710,0.325,0.571,0.538,��,5.7,��
2023/06/22,01:10,0.543,0.818,0.493,0.982,0.710,0.325,0.571,0.539,��,6.6,��
2023/06/22,01:20,0.541,0.817,0.492,0.982,0.711,0.326,0.570,0.538,��,6.7,��
2023/06/22,01:30,0.541,0.818,0.493,0.982,0.709,0.324,0.570,0.536,��,6.5,��
2023/06/22,01:40,0.542,0.818,0.492,0.982,0.709,0.326,0.572,0.537,��,6.4,��
2023/06/22,01:50,0.542,0.816,0.492,0.981,0.711,0.325,0.572,0.537,��,6.7,��
2023/06/22,02:00,0.540,0.819,0.493,0.981,0.711,0.326,0.570,0.538,��쓌,6.2,��
2023/06/22,02:10,0.543,0.819,0.493,0.983,0.710,0.325,0.571,0.537,��쓌,7.1,��
2023/06/22,02:20,0.541,0.818,0.494,0.983,0.712,0.324,0.571,0.536,��,7.2,��
2023/06/22,02:30,0.542,0.817,0.492,0.983,0.711,0.325,0.571,0.537,��,6.4,��
2023/06/22,02:40,0.543,0.817,0.492,0.982,0.710,0.324,0.571,0.536,��,6.2,��
2023/06/22,02:50,0.542,0.819,0.492,0.982,0.709,0.324,0.572,0.539,��,5.2,��
2023/06/22,03:00,0.542,0.819,0.492,0.985,0.710,0.325,0.571,0.537,��,4.6,�L
2023/06/22,03:10,0.542,0.820,0.494,0.983,0.709,0.325,0.571,0.538,��,4.8,�L
2023/06/22,03:20,0.544,0.820,0.494,0.981,0.710,0.324,0.572,0.537,��,5.0,�L
2023/06/22,03:30,0.541,0.819,0.493,0.982,0.710,0.326,0.571,0.538,��,5.6,��
2023/06/22,03:40,0.541,0.818,0.492,0.981,0.711,0.324,0.569,0.539,��,5.7,��
2023/06/22,03:50,0.543,0.817,0.493,0.984,0.709,0.326,0.571,0.537,��,6.3,��
2023/06/22,04:00,0.542,0.820,0.494,0.984,0.710,0.325,0.571,0.537,��,5.5,��
2023/06/22,04:10,0.542,0.819,0.493,0.987,0.710,0.326,0.573,0.539,��,5.7,��
2023/06/22,04:20,0.542,0.818,0.492,0.982,0.709,0.325,0.571,0.538,��,5.4,��
2023/06/22,04:30,0.542,0.818,0.492,0.982,0.711,0.325,0.570,0.537,��,5.8,��
2023/06/22,04:40,0.542,0.819,0.491,0.981,0.709,0.325,0.570,0.537,��,6.1,��
2023/06/22,04:50,0.542,0.818,0.493,0.983,0.710,0.325,0.571,0.538,��,5.8,��
2023/06/22,05:00,0.541,0.819,0.492,0.980,0.710,0.326,0.570,0.535,��,5.4,��
2023/06/22,05:10,0.541,0.818,0.492,0.983,0.710,0.325,0.571,0.537,��,5.4,��
2023/06/22,05:20,0.539,0.819,0.494,0.981,0.709,0.326,0.571,0.537,��,5.2,��
2023/06/22,05:30,0.543,0.819,0.492,0.981,0.710,0.327,0.572,0.538,��쓌,5.5,��
2023/06/22,05:40,0.543,0.820,0.494,0.983,0.710,0.326,0.569,0.536,��쓌,5.5,��
2023/06/22,05:50,0.544,0.818,0.494,0.984,0.710,0.325,0.572,0.537,��쓌,4.5,��
2023/06/22,06:00,0.544,0.817,0.492,0.982,0.710,0.326,0.572,0.537,��쓌,3.9,��
2023/06/22,06:10,0.542,0.818,0.493,0.981,0.710,0.325,0.570,0.537,��쓌,3.9,�L
2023/06/22,06:20,0.543,0.815,0.493,0.983,0.709,0.326,0.572,0.536,��쓌,4.4,�L
2023/06/22,06:30,0.543,0.816,0.493,0.983,0.708,0.325,0.571,0.538,��,5.3,�L
2023/06/22,06:40,0.545,0.814,0.494,0.983,0.708,0.325,0.570,0.538,��,5.9,�L
2023/06/22,06:50,0.543,0.814,0.494,0.981,0.708,0.325,0.571,0.536,��쓌,6.3,�L
2023/06/22,07:00,0.544,0.815,0.492,0.981,0.707,0.326,0.570,0.538,��쓌,5.9,�L
2023/06/22,07:10,0.543,0.815,0.493,0.983,0.709,0.325,0.570,0.537,��쓌,4.8,��
2023/06/22,07:20,0.542,0.814,0.492,0.983,0.708,0.325,0.571,0.537,��쓌,3.9,��
2023/06/22,07:30,0.541,0.816,0.492,0.981,0.707,0.325,0.570,0.536,��쓌,4.5,��
2023/06/22,07:40,0.541,0.814,0.492,0.984,0.706,0.323,0.570,0.537,��쓌,4.1,��
2023/06/22,07:50,0.540,0.814,0.491,0.982,0.707,0.323,0.571,0.535,��쓌,4.3,��
2023/06/22,08:00,0.542,0.813,0.489,0.980,0.706,0.324,0.570,0.536,��,4.5,��
2023/06/22,08:10,0.540,0.812,0.489,0.980,0.707,0.324,0.570,0.536,��쓌,4.8,�L
2023/06/22,08:20,0.541,0.811,0.492,0.981,0.707,0.324,0.571,0.535,��쓌,4.7,�L
2023/06/22,08:30,0.541,0.813,0.490,0.982,0.705,0.324,0.569,0.536,��쓌,5.3,��
2023/06/22,08:40,0.542,0.812,0.492,0.983,0.707,0.326,0.571,0.535,��쓌,5.7,��
2023/06/22,08:50,0.540,0.814,0.491,0.982,0.707,0.324,0.571,0.535,��쓌,5.6,��
2023/06/22,09:00,0.543,0.815,0.490,0.981,0.705,0.324,0.571,0.536,��쓌,5.2,��
2023/06/22,09:10,0.541,0.810,0.491,0.982,0.706,0.324,0.571,0.534,��쓌,4.1,��
2023/06/22,09:20,0.541,0.811,0.491,0.981,0.705,0.324,0.571,0.535,��쓌,4.8,��
2023/06/22,09:30,0.540,0.813,0.488,0.979,0.707,0.324,0.569,0.534,��쓌,5.1,��
2023/06/22,09:40,0.542,0.812,0.489,0.982,0.705,0.324,0.570,0.534,��쓌,6.2,��
2023/06/22,09:50,0.540,0.812,0.489,0.981,0.706,0.325,0.571,0.535,��쓌,5.1,��
2023/06/22,10:00,0.541,0.811,0.491,0.983,0.706,0.323,0.570,0.534,��쓌,5.2,�L
2023/06/22,10:10,0.541,0.813,0.490,0.979,0.707,0.324,0.569,0.535,��쓌,5.4,�L
2023/06/22,10:20,0.542,0.813,0.493,0.983,0.708,0.325,0.571,0.535,��쓌,4.8,�L
2023/06/22,10:30,0.540,0.813,0.492,0.984,0.708,0.326,0.571,0.536,��쓌,4.7,�L
2023/06/22,10:40,0.542,0.813,0.493,0.983,0.708,0.326,0.571,0.536,��쓌,5.4,�L
2023/06/22,10:50,0.544,0.814,0.495,0.984,0.709,0.326,0.572,0.536,��쓌,5.9,�L
2023/06/22,11:00,0.544,0.814,0.494,0.983,0.709,0.328,0.570,0.534,��,5.8,�L
2023/06/22,11:10,0.543,0.809,0.494,0.985,0.707,0.327,0.571,0.535,��쓌,6.8,�L
2023/06/22,11:20,0.542,0.808,0.493,0.984,0.706,0.326,0.570,0.534,��쓌,7.2,�L
2023/06/22,11:30,0.542,0.809,0.492,0.983,0.705,0.327,0.568,0.534,��쓌,8.5,�L
2023/06/22,11:40,0.542,0.808,0.491,0.984,0.705,0.327,0.570,0.535,��쓌,10.6,�L
2023/06/22,11:50,0.541,0.806,0.490,0.982,0.700,0.326,0.569,0.534,��쓌,9.6,�L
2023/06/22,12:00,0.539,0.805,0.490,0.981,0.702,0.327,0.568,0.533,��쓌,11.1,�L
2023/06/22,12:10,0.539,0.804,0.488,0.979,0.701,0.327,0.568,0.535,��쓌,8.8,�L
2023/06/22,12:20,0.538,0.802,0.488,0.978,0.698,0.326,0.568,0.533,��,9.2,�L
2023/06/22,12:30,0.537,0.802,0.488,0.978,0.696,0.326,0.567,0.533,��쓌,8.9,�L
2023/06/22,12:40,0.538,0.799,0.489,0.975,0.699,0.326,0.566,0.532,��쓌,7.2,�L
2023/06/22,12:50,0.537,0.800,0.486,0.975,0.699,0.326,0.566,0.531,��쓌,7.6,�L
2023/06/22,13:00,0.538,0.799,0.487,0.977,0.697,0.326,0.567,0.533,��쓌,8.5,�L
2023/06/22,13:10,0.538,0.798,0.487,0.976,0.697,0.324,0.566,0.532,��쓌,9.8,�L
2023/06/22,13:20,0.536,0.796,0.485,0.973,0.695,0.325,0.567,0.530,��쓌,10.0,�L
2023/06/22,13:30,0.535,0.795,0.485,0.973,0.694,0.324,0.565,0.532,��쓌,10.0,�L
2023/06/22,13:40,0.533,0.794,0.486,0.971,0.693,0.326,0.563,0.531,��,8.3,�L
2023/06/22,13:50,0.534,0.792,0.485,0.971,0.692,0.324,0.564,0.530,��,7.0,�L
2023/06/22,14:00,0.534,0.790,0.482,0.971,0.691,0.323,0.563,0.530,��,8.0,�L
2023/06/22,14:10,0.531,0.789,0.483,0.968,0.690,0.324,0.563,0.532,��,6.0,�L
2023/06/22,14:20,0.528,0.787,0.483,0.966,0.689,0.324,0.561,0.528,��,6.5,�L
2023/06/22,14:30,0.530,0.785,0.482,0.965,0.687,0.322,0.561,0.530,��,6.6,�L
2023/06/22,14:40,0.530,0.783,0.482,0.962,0.690,0.322,0.561,0.528,��쓌,8.1,�L
2023/06/22,14:50,0.530,0.784,0.481,0.962,0.685,0.321,0.561,0.529,��쓌,7.0,�L
2023/06/22,15:00,0.526,0.782,0.480,0.960,0.685,0.324,0.559,0.529,��,7.9,�L
2023/06/22,15:10,0.527,0.783,0.480,0.958,0.684,0.322,0.561,0.527,��,7.2,�L
2023/06/22,15:20,0.526,0.781,0.480,0.958,0.684,0.321,0.559,0.526,��,7.8,�L
2023/06/22,15:30,0.525,0.782,0.480,0.956,0.682,0.323,0.559,0.526,��,7.0,�L
2023/06/22,15:40,0.525,0.781,0.480,0.954,0.680,0.321,0.559,0.526,��,6.2,�L
2023/06/22,15:50,0.523,0.776,0.476,0.951,0.676,0.321,0.556,0.525,��쓌,8.2,�L
2023/06/22,16:00,0.522,0.772,0.477,0.946,0.676,0.320,0.557,0.525,��,6.6,�L
2023/06/22,16:10,0.523,0.776,0.479,0.948,0.676,0.320,0.556,0.526,��,7.2,�L
2023/06/22,16:20,0.521,0.775,0.478,0.944,0.676,0.320,0.558,0.525,��쓌,6.5,�L
2023/06/22,16:30,0.521,0.774,0.476,0.944,0.676,0.318,0.555,0.525,��,4.2,�L
2023/06/22,16:40,0.521,0.774,0.477,0.939,0.675,0.320,0.558,0.526,��,3.5,�L
2023/06/22,16:50,0.521,0.776,0.476,0.943,0.675,0.319,0.555,0.524,��,4.5,�L
2023/06/22,17:00,0.520,0.774,0.477,0.942,0.675,0.318,0.556,0.525,��,4.3,�L
2023/06/22,17:10,0.520,0.773,0.476,0.941,0.675,0.319,0.557,0.525,��,4.1,�L
2023/06/22,17:20,0.520,0.775,0.476,0.939,0.674,0.318,0.556,0.524,��,5.6,�L
2023/06/22,17:30,0.519,0.775,0.475,0.941,0.674,0.318,0.557,0.523,��,6.0,�L
2023/06/22,17:40,0.519,0.775,0.475,0.939,0.674,0.318,0.554,0.525,��,5.7,�L
2023/06/22,17:50,0.519,0.777,0.476,0.938,0.674,0.318,0.554,0.526,��,6.3,�L
2023/06/22,18:00,0.519,0.775,0.474,0.940,0.674,0.317,0.554,0.524,��,5.9,�L
2023/06/22,18:10,0.519,0.776,0.475,0.940,0.673,0.317,0.557,0.525,��쐼,4.8,��
2023/06/22,18:20,0.520,0.774,0.473,0.937,0.676,0.317,0.556,0.524,��쐼,3.6,��
2023/06/22,18:30,0.516,0.776,0.472,0.940,0.674,0.315,0.555,0.526,��쐼,4.2,�L
2023/06/22,18:40,0.518,0.773,0.474,0.941,0.676,0.316,0.556,0.524,��,3.8,�L
2023/06/22,18:50,0.519,0.776,0.476,0.941,0.675,0.317,0.557,0.528,��,4.4,�L
2023/06/22,19:00,0.517,0.776,0.476,0.941,0.674,0.318,0.556,0.526,��쐼,4.7,�L
2023/06/22,19:10,0.517,0.774,0.475,0.937,0.672,0.316,0.557,0.527,��,4.7,�L
2023/06/22,19:20,0.518,0.773,0.476,0.941,0.674,0.317,0.556,0.525,��,5.6,�L
2023/06/22,19:30,0.517,0.774,0.476,0.940,0.673,0.318,0.556,0.525,��,5.0,�L
2023/06/22,19:40,0.516,0.773,0.473,0.938,0.672,0.317,0.555,0.525,��,4.0,�L
2023/06/22,19:50,0.517,0.774,0.474,0.939,0.673,0.318,0.554,0.526,��쐼,3.6,�L
2023/06/22,20:00,0.515,0.775,0.474,0.939,0.671,0.317,0.555,0.525,��쐼,3.4,�L
2023/06/22,20:10,0.518,0.770,0.473,0.937,0.671,0.319,0.555,0.524,�쐼,3.0,�L
2023/06/22,20:20,0.517,0.769,0.474,0.932,0.671,0.318,0.554,0.524,�쐼,3.9,�L
2023/06/22,20:30,0.515,0.771,0.475,0.932,0.671,0.319,0.555,0.524,��쐼,3.2,�L
2023/06/22,20:40,0.518,0.770,0.474,0.931,0.670,0.319,0.555,0.524,��,2.2,�L
2023/06/22,20:50,0.514,0.768,0.474,0.930,0.668,0.319,0.554,0.523,��쐼,1.7,�L
2023/06/22,21:00,0.514,0.765,0.473,0.930,0.669,0.319,0.554,0.522,��쐼,2.2,�L
2023/06/22,21:10,0.514,0.767,0.473,0.930,0.668,0.319,0.554,0.523,��,1.7,�L
2023/06/22,21:20,0.514,0.765,0.473,0.929,0.667,0.318,0.555,0.522,��쓌,0.5,�L
2023/06/22,21:30,0.513,0.767,0.474,0.928,0.666,0.318,0.552,0.522,�쓌,2.2,�L
2023/06/22,21:40,0.512,0.760,0.473,0.924,0.662,0.316,0.552,0.520,��쓌,3.4,�L
2023/06/22,21:50,0.509,0.759,0.472,0.915,0.659,0.316,0.549,0.519,�k��,2.8,�L
2023/06/22,22:00,0.509,0.756,0.472,0.915,0.657,0.319,0.549,0.518,���k��,0.8,�L
2023/06/22,22:10,0.509,0.756,0.470,0.917,0.658,0.317,0.548,0.517,��,1.0,�L
2023/06/22,22:20,0.508,0.758,0.471,0.914,0.656,0.317,0.549,0.517,��쓌,6.0,�L
2023/06/22,22:30,0.508,0.754,0.473,0.916,0.656,0.318,0.548,0.516,-,CALM,�L
2023/06/22,22:40,0.508,0.755,0.472,0.913,0.655,0.317,0.548,0.515,��,3.6,�L
2023/06/22,22:50,0.509,0.756,0.471,0.916,0.653,0.316,0.547,0.515,��,2.6,�L
2023/06/22,23:00,0.508,0.755,0.469,0.915,0.652,0.317,0.547,0.515,���쓌,3.8,�L
2023/06/22,23:10,0.508,0.758,0.470,0.914,0.654,0.316,0.548,0.516,�쐼,1.3,�L
2023/06/22,23:20,0.509,0.757,0.471,0.916,0.656,0.316,0.547,0.517,��,0.7,�L
2023/06/22,23:30,0.509,0.758,0.471,0.917,0.655,0.316,0.547,0.518,��,0.9,�L
2023/06/22,23:40,0.510,0.759,0.470,0.917,0.658,0.315,0.548,0.519,���쐼,1.2,�L
2023/06/22,23:50,0.508,0.757,0.470,0.916,0.657,0.315,0.549,0.519,��,1.5,�L
